Simultaneous Nadir Overpasses (SNOs) Predictions

Prediction of SNOs between FY3D and TERRA Satellite Orbit:

Table of predicted SNOs for the next 14.0 days since TLE Epoch: 11/2/2019
Index Date (FY3D) Time (FY3D) Lat,Lon (FY3D) SZA (FY3D ) Date (TERRA) Time (TERRA) Lat,Lon (TERRA) SZA (TERRA ) Distance(km) Time Diff (sec)
1 11/03/2019 04:03:51 68.80, 118.10 83.67 11/03/2019 04:04:23 68.78, 118.10 83.66 2.04 32
2 11/03/2019 04:54:32 -68.66, -74.39 96.46 11/03/2019 04:53:53 -68.68, -74.40 96.45 2.53 39
3 11/05/2019 20:20:16 68.81,-126.01 84.50 11/05/2019 20:20:50 68.83,-125.96 84.53 3.04 34
4 11/05/2019 21:10:57 -68.66, 41.50 95.64 11/05/2019 21:10:21 -68.67, 41.47 95.63 1.92 36
5 11/08/2019 12:36:42 68.82, -10.13 85.30 11/08/2019 12:37:19 68.81, -10.10 85.30 1.26 37
6 11/08/2019 13:27:23 -68.66, 157.39 94.84 11/08/2019 13:26:50 -68.66, 157.34 94.85 2.13 33
7 11/11/2019 04:53:07 68.77, 105.82 86.02 11/11/2019 04:53:48 68.79, 105.75 86.04 3.57 41
8 11/11/2019 05:43:49 -68.67, -86.72 94.08 11/11/2019 05:43:18 -68.69, -86.73 94.05 3.12 31
9 11/13/2019 21:09:34 68.83,-138.37 86.80 11/13/2019 21:10:16 68.82,-138.33 86.79 2.27 42
10 11/13/2019 22:00:15 -68.67, 29.16 93.35 11/13/2019 21:59:47 -68.67, 29.12 93.36 1.85 28




NCC Satellite Simultaneous Nadir Overpasses (SNOs) Prediction Service
